Tracking 18980 objects as of 22-Feb-2018
HD Live streaming from Space Station
objects crossing your sky now

CZ-4B DEB

Track CZ-4B DEB now!
10-day predictions


NORAD ID: 37581
Int'l Code: 1999-025EKE
Perigee: 744.6 km
Apogee: 907.3 km
Inclination: 98.9 °
Period: 101.3 minutes
Semi major axis: 7196 km
RCS: 0.0014 m2 (small)
Launch date: May 10, 1999
Source: People's Republic of China (PRC)
Launch site: Taiyaun Space Center, China (TSC)

Note: This is SATELLITE DEBRIS
aabbcc
Your satellite tracking list
Your tracking list is empty




NASA's NSSDC Master Catalog

Two Line Element Set (TLE):
1 37581U 99025EKE 18052.20019740 +.00000229 +00000-0 +11651-3 0  9998
2 37581 098.8568 042.8461 0112996 350.8308 065.7014 14.21939901811248
Source of the keplerian elements: AFSPC